Weather History for Rolla, MO

Change the Weather History Date:

Friday, October 26, 2012

  Actual Average Record
Temperature  
Mean Temperature 42 °F 54 °F  
Max Temperature 49 °F 64 °F 84 °F (1952)
Min Temperature 34 °F 43 °F 25 °F (1957)
Degree Days  
Heating Degree Days 23 12  
Month to date heating degree days 263 221  
Since 1 July heating degree days 345 285  
Cooling Degree Days 0 0  
Month to date cooling degree days 25 25  
Year to date cooling degree days 1691 1243  
Moisture  
Dew Point 29 °F    
Average Humidity 64    
Maximum Humidity 79    
Minimum Humidity 48    
Precipitation  
Precipitation 0.00 in 0.11 in 1.83 in (1947)
Month to date precipitation 3.10 2.93  
Year to date precipitation 29.66 36.52  
Sea Level Pressure  
Sea Level Pressure 30.30 in    
Wind  
Wind Speed 12 mph (North)    
Max Wind Speed 18 mph    
Max Gust Speed 25 mph    
Visibility 10 miles    
Events      
T = Trace of Precipitation, MM = Missing Value Source: NWS Daily Summary

Daily Weather History Graph

Daily Weather History Graph

Search for Another Location

Airport:

Trip Planner

Search our weather history database for the weather conditions in past years. The results will help you decide how hot, cold, wet, or windy it might be!

Date:

Astronomy

Oct. 26, 2012 Rise Set
Actual Time 7:27 AM CDT 6:14 PM CDT
Civil Twilight 7:00 AM CDT 6:41 PM CDT
Nautical Twilight 6:29 AM CDT 7:12 PM CDT
Astronomical Twilight 5:58 AM CDT 7:42 PM CDT
Moon 4:28 PM CDT (10/26) 4:26 AM CDT (10/26)
Length of Visible Light 11h 40m
Length of Day
10h 46m
Waxing Gibbous, 91% of the Moon is Illuminated
Oct 26
Waxing Gibbous
Oct 29
Full
Nov 6
Last Quarter
Nov 13
New
Nov 20
First Quarter

Hourly Weather History & Observations

Time (CDT) Temp. Windchill Dew Point Humidity Pressure Visibility Wind Dir Wind Speed Gust Speed Precip Events Conditions
12:53 AM 42.8 °F 35.1 °F 33.8 °F 70% 30.19 in 10.0 mi North 16.1 mph 21.9 mph N/A   Overcast
1:53 AM 41.0 °F 33.9 °F 34.0 °F 76% 30.20 in 10.0 mi North 12.7 mph - N/A   Overcast
2:53 AM 39.9 °F 33.4 °F 33.1 °F 77% 30.24 in 10.0 mi North 10.4 mph - N/A   Overcast
3:53 AM 39.0 °F 29.9 °F 30.9 °F 73% 30.24 in 10.0 mi North 17.3 mph 25.3 mph N/A   Overcast
4:53 AM 37.9 °F 28.9 °F 28.9 °F 70% 30.26 in 10.0 mi North 16.1 mph 23.0 mph N/A   Overcast
5:53 AM 37.9 °F 30.5 °F 28.9 °F 70% 30.28 in 10.0 mi North 11.5 mph - N/A   Overcast
6:53 AM 37.9 °F 28.2 °F 30.0 °F 73% 30.29 in 10.0 mi North 18.4 mph 21.9 mph N/A   Overcast
7:26 AM 35.6 °F 26.2 °F 26.6 °F 70% 30.30 in 10.0 mi North 15.0 mph 24.2 mph N/A   Scattered Clouds
7:53 AM 35.1 °F 25.9 °F 26.1 °F 70% 30.32 in 10.0 mi North 13.8 mph - N/A   Clear
8:53 AM 37.0 °F 28.5 °F 26.1 °F 65% 30.34 in 10.0 mi North 13.8 mph - N/A   Clear
9:53 AM 39.9 °F 31.4 °F 27.0 °F 60% 30.36 in 10.0 mi North 16.1 mph - N/A   Clear
10:53 AM 41.0 °F 32.2 °F 27.0 °F 57% 30.35 in 10.0 mi North 18.4 mph 25.3 mph N/A   Clear
11:53 AM 44.1 °F 36.2 °F 28.0 °F 53% 30.35 in 10.0 mi North 18.4 mph 24.2 mph N/A   Clear
12:53 PM 46.9 °F - 28.0 °F 48% 30.33 in 10.0 mi NNW 11.5 mph - N/A   Clear
1:53 PM 48.0 °F - 28.9 °F 48% 30.31 in 10.0 mi North 11.5 mph 20.7 mph N/A   Clear
2:53 PM 48.0 °F - 28.9 °F 48% 30.30 in 10.0 mi North 15.0 mph - N/A   Clear
3:53 PM 48.0 °F - 28.9 °F 48% 30.30 in 10.0 mi NNW 15.0 mph 20.7 mph N/A   Clear
4:53 PM 48.0 °F - 28.9 °F 48% 30.30 in 10.0 mi North 12.7 mph - N/A   Clear
5:53 PM 44.1 °F 39.5 °F 28.0 °F 53% 30.30 in 10.0 mi North 8.1 mph - N/A   Clear
6:53 PM 39.9 °F 34.5 °F 28.0 °F 63% 30.31 in 10.0 mi NNW 8.1 mph - N/A   Clear
7:53 PM 39.9 °F 33.9 °F 28.0 °F 63% 30.33 in 10.0 mi North 9.2 mph - N/A   Clear
8:53 PM 37.0 °F 31.6 °F 28.0 °F 70% 30.32 in 10.0 mi North 6.9 mph - N/A   Clear
9:53 PM 35.6 °F 31.7 °F 28.4 °F 75% 30.31 in 10.0 mi NNW 4.6 mph - N/A   Clear
10:53 PM 35.1 °F 30.1 °F 28.0 °F 76% 30.33 in 10.0 mi North 5.8 mph - N/A   Clear
11:53 PM 34.0 °F 28.0 °F 28.0 °F 79% 30.33 in 10.0 mi North 6.9 mph - N/A   Clear